User: anonymous   Login
Location: Oakhurst
(33.6448°N, 111.9543°W)
Time: 00:19:46
(UTC+00:00)
Language:

SPROUT - Orbit

View from above orbital plane
View from above orbital plane
View from above satellite
View from above satellite

Ground track
Ground track

The orbit data is extracted from the following two-line orbital elements,

1 39770U 14029E   21206.86148355  .00000964  00000-0  10972-3 0  9994
2 39770  97.9193 318.1101 0010159  83.6903 276.5484 14.88520074389056
Epoch (UTC): 25 July 2021 20:40:32
Eccentricity: 0.0010159
inclination: 97.9193°
perigee height: 595 km
apogee height: 609 km
right ascension of ascending node: 318.1101°
argument of perigee: 83.6903°
revolutions per day: 14.88520074
mean anomaly at epoch: 276.5484°
orbit number at epoch: 38905

The dashed part of the orbit path shows where the satellite is in the earth's shadow,  

DLR